Volver al catálogo

CZ-4 DEB

ActivoPO
NORAD 20900·DEBRIS·🇨🇳 China

Lanzado Sep 3, 1990 desde Taiyuan Satellite Launch Center

Loading…

Próximos Pases (próximas 24 horas)

TLE

ActualizadoSource: Space-Track

Época: Sep 14, 2026, 18:31 UTC

1 20900U 90081BL  26257.77177833  .00024359  00000-0  24400-2 0  9999
2 20900  99.0349 359.8727 0018341 237.9996 280.4715 14.91253170861645

Sigue CZ-4 DEB en tiempo real con AllMySat

Download on the App Store